SL-12 R/B(AUX MOTOR)

Satellite information

Favourite Embed

Satellite Type and Status

ROCKET BODYIN ORBIT

Key statistics

Satellite SL-12 R/B(AUX MOTOR) at a glance.

Uptime

13290

Days in orbit

Revolutions

≈ 4.5

Per day

Orbit

HEO

HEO

Inclination

64.9

Latest

Satellite identification and parameters

Extended collection of information and parameters for SL-12 R/B(AUX MOTOR).

Object identification

Identified? True

Debris? False

Object name: SL-12 R/B(AUX MOTOR)

International designator: 1989-039G

Object number (NORAD): 20081

Object ID (CCSDS): 20081

Country: COMMONWEALTH OF INDEPENDENT STATES (CIS)

Current information (Y/N): Y

RCS size: MEDIUM

Orbital parameters

Period: 323.416 minutes

Inclination: 64.9026 deg

SMA: 15607.555 km

Apoapsis: 17892.15 km

Periapsis: 566.689 km

RAAN: 84.2242 deg

Eccentricy: 0.55503445

Argument of periapsis: 124.8891 deg

Mean anomaly: 300.4937 deg

Mean motion: 4.45246444 rev/day

Mean motion (dot): 0.00000227 rev/day2

B* drag term: 0.00074591171 1/REarth

Two-line elements (TLE)

Creation date: Oct. 19, 2025, 2:20 a.m.

Reference frame: TEME

Reference center: EARTH

Epoch: Oct. 18, 2025, 6:59 p.m. UTC

TLE line 0: 0 SL-12 R/B(AUX MOTOR)

TLE line 1: 1 20081U 89039G 25291.79105407 .00000227 00000-0 74591-3 0 9992

TLE line 2: 2 20081 64.9026 84.2242 5550345 124.8891 300.4937 4.45246444574304

Live tracking on map

Real-time ground track for satellite SL-12 R/B(AUX MOTOR).

In-orbit conjunctions

A list of the most updated potential collisions computed for object SL-12 R/B(AUX MOTOR).

Target Orbit TCA Probability of collision Miss distance Type
SL-12 DEB MEO 2024-08-19 08:31:20 TBA 2140.0 (m) DEBRIS

Associated space launch

GLONASS navigation satellites

SL-12 R/B(AUX MOTOR) was lifted into orbit during the mission ‘Proton | Uragan 34 & 35’, on board a Proton space rocket.

The launch took place on May 31, 1989, 8:31 a.m. from 200/40.

For more information about the launch, click the button.

Launch to space Proton | Uragan 34 & 35
Proton | Uragan 34 & 35

Agency: N/A

Status: Launch Successful

Launch date: May 31, 1989, 8:31 a.m. UTC

Rocket: Proton

Launch pad: 200/40

Location: Baikonur Cosmodrome, Republic of Kazakhstan

...

Latest news about this satellite

There are no fresh news available about this satellite. Check back as we update our databases every day.


Newsletter sign-up

Weekly statistics, charts and insights to help you stay on top of the space industry.